シュピターラー彗星

113P/Spitaler (2008)

English version
Home page
Total 6,336 html files since Dec. 4, 1995
Updated on April 4, 2008

---------------------------------------------------------------------

・ プロフィール

・ 写真集

・ 軌道要素

The following orbital elements are taken from MPC 54168:

Epoch 2008 Apr. 4.0 TT = JDT 2454560.5
T 2008 Mar. 23.4067 TT                                  MPC
q   2.128514             (2000.0)            P               Q
n   0.1390948      Peri.   49.8470      +0.4343077      -0.9004134
a   3.689171       Node    14.4734      +0.7928229      +0.3688610
e   0.423037       Incl.    5.7754      +0.4275614      +0.2306454
P   7.09
From 166 observations 1993-2001, mean residual 0".7.

・ 光度変化

        m1 = 12.0 + 5 logΔ + 15.0 log r

---------------------------------------------------------------------

軌道要素はMPCのEphemerides and Orbital Elementsに掲載されたものです。
光度グラフはComet for Windowsで作成したものです。

---------------------------------------------------------------------

Copyright(C) 1995-2008 Seiichi Yoshida (comet@aerith.net). All rights reserved.